Regional Weather Roundup
Issued by NWS

Home | Current Version | Previous Version | Graphics & Text | Print | Product List | Glossary On
Versions: 1 2 3 4 5 6 7 8 9 10 11 12 13 14 15 16 17 18 19 20 21 22 23 24 25 26 27 28 29 30 31 32 33 34 35 36 37 38 39 40 41 42 43 44 45 46 47 48 49 50
000
ASUS43 KOAX 221510
RWRNE

WEATHER ROUNDUP FOR NEBRASKA
NATIONAL WEATHER SERVICE OMAHA NE
1000 AM CDT TUE JUL 22 2014

NOTES: SATELLITE DATA IS BEING USED TO AUGMENT CLOUD COVER ABOVE
       12000 FEET.
       "FAIR" INDICATES FEW OR NO CLOUDS BELOW 12,000 FEET WITH NO
       SIGNIFICANT WEATHER AND/OR OBSTRUCTIONS TO VISIBILITY.

  * THESE STATIONS DO NOT REPORT WEATHER SUCH AS RAIN...SNOW OR FOG.

NEZ001>004-019>022-054>056-221600-
NEBRASKA PANHANDLE

CITY           SKY/WX    TMP DP  RH WIND       PRES   REMARKS
SCOTTSBLUFF    SUNNY     78  59  51 SE6       30.23S
ALLIANCE       SUNNY     80  53  39 NE16      30.21S
CHADRON        SUNNY     76  61  59 NE8       30.21R
KIMBALL        SUNNY     73  59  62 NE8       30.28R
SIDNEY         SUNNY     80  54  40 CALM      30.27R
$$

NEZ057>060-069>072-079>082-221600-
SOUTHWEST NEBRASKA

CITY           SKY/WX    TMP DP  RH WIND       PRES   REMARKS
NORTH PLATTE   SUNNY     82  60  47 E9        30.13R
IMPERIAL       SUNNY     80  58  46 CALM      30.18R
LEXINGTON      SUNNY     82  62  50 E15       30.08R
MCCOOK         SUNNY     82  61  48 E20G26    30.10R
OGALLALA       SUNNY     78  60  52 N10       30.20R
$$

NEZ005>010-023>029-035>040-094-221600-
NORTH CENTRAL NEBRASKA

CITY           SKY/WX    TMP DP  RH WIND       PRES   REMARKS
VALENTINE      SUNNY     76  62  62 E9        30.12F
AINSWORTH      MOSUNNY   73  62  70 NE7       30.15F
BROKEN BOW     MOSUNNY   81  61  50 E14G20    30.11R
O`NEILL        MOSUNNY   75  61  61 N14       30.15R
THEDFORD       SUNNY     80  60  49 NE10      30.19R
$$

NEZ041-046>049-061>064-073>077-083>087-221600-
SOUTH CENTRAL NEBRASKA

CITY           SKY/WX    TMP DP  RH WIND       PRES   REMARKS
GRAND ISLAND   MOSUNNY   80  63  55 NE6       30.06F
AURORA         MOSUNNY   80  68  65 NE6       30.05S
HASTINGS       PTSUNNY   82  64  54 NE6       30.07S
HEBRON         SUNNY     87  67  51 W6        30.03F
HOLDREGE       SUNNY     79  63  56 E13       30.10S
KEARNEY *      MOSUNNY   82  63  51 E13       30.09S
YORK           MOSUNNY   81  72  74 NE7       30.04S
$$

NEZ011>018-030>034-042>045-221600-
NORTHEAST NEBRASKA

CITY           SKY/WX    TMP DP  RH WIND       PRES   REMARKS
NORFOLK        MOSUNNY   82  62  50 NE9       30.03S
ALBION         PTSUNNY   80  60  50 NE6       30.05R
BLAIR          MOSUNNY   83  69  62 NE10      29.98S
COLUMBUS *     SUNNY     82  64  54 NE8       30.03R
FREMONT        PTSUNNY   84  73  67 N6        29.99F HX  90
TEKAMAH        CLOUDY    84  71  65 NE5       29.97S
WAYNE          PTSUNNY   80  68  66 N14       30.04R
$$

NEZ050>053-065>068-078-088>093-221600-
SOUTHEAST NEBRASKA

CITY           SKY/WX    TMP DP  RH WIND       PRES   REMARKS
LINCOLN        SUNNY     87  74  64 NE9       30.00F HX  95
OMAHA EPPLEY   MOSUNNY   86  75  69 NE12      29.97F HX  95
BEATRICE       SUNNY     81  71  71 W7        30.01F
FALLS CITY     SUNNY     87  75  67 SW10      29.99F HX  96
NEBRASKA CITY  SUNNY     84  71  64 W7        29.99F
PLATTSMOUTH    SUNNY     84  72  66 N3        29.98F HX  90
$$

NEZ044-045-051>053-067-221600-
OMAHA AREA

CITY           SKY/WX    TMP DP  RH WIND       PRES   REMARKS
OMAHA EPPLEY   MOSUNNY   86  75  69 NE12      29.97F HX  95
BLAIR          MOSUNNY   83  69  62 NE10      29.98S
FREMONT        PTSUNNY   84  73  67 N6        29.99F HX  90
MILLARD        MOSUNNY   87  77  71 NE3       29.96F HX  98
OFFUTT AFB     MOSUNNY   87  77  73 VRB5      29.97S HX  98
PLATTSMOUTH    SUNNY     84  72  66 N3        29.98F HX  90
WAHOO          FAIR      84  73  69 N7        29.99S HX  90
$$



USA.gov is the U.S. government's official web portal to all federal, state and local government web resources and services.